Location: Cowan Heights
(33.7778°N, 117.7739°W)
Time: 00:28:58
(UTC+00:00)

Daily predictions for brighter satellites

Satellite Brightness Start Highest point End
(mag) Time Altitude Azimuth Time Altitude Azimuth Time Altitude Azimuth
CZ-2D R/B 3.3 02:10:29 10° SSE 02:14:17 58° ENE 02:18:06 10° N
IRS-1C Rocket 4.3 02:09:39 10° SSE 02:14:54 83° WSW 02:20:10 10° NNW
CZ-2C R/B 4.2 02:12:06 10° ENE 02:15:00 14° E 02:17:54 10° SE
SL-24 R/B 4.1 02:10:59 10° SSE 02:15:15 80° ENE 02:19:43 10° N
Okean-O 2.6 02:12:40 10° SSE 02:17:01 63° ENE 02:21:24 10° N
SL-16 R/B 3.0 02:11:34 10° NNW 02:17:08 58° WSW 02:22:39 10° S
SWARM C 4.5 02:15:09 10° N 02:18:29 86° E 02:21:49 10° S
SWARM A 4.3 02:15:16 10° N 02:18:36 84° W 02:21:56 10° S
Cosmos 2263 Rocket 2.3 02:14:43 10° SSW 02:20:17 86° WNW 02:25:53 10° NNE
Cosmos 990 Rocket 4.3 02:15:49 10° SSW 02:20:56 74° WNW 02:26:05 10° NNE
NOSS 2-2 (E) 2.9 02:18:19 10° SSW 02:21:51 78° ESE 02:25:25 10° NNE
DELTA 2 R/B (1) 4.1 02:16:41 10° WNW 02:22:05 52° N 02:27:30 10° E
Cosmos 1378 3.7 02:19:11 10° NNW 02:22:50 62° W 02:26:30 10° S
Meteor 2-9 Rocket 4.3 02:18:16 10° S 02:24:02 66° E 02:29:49 10° NNE
CZ-2C R/B 3.5 02:20:51 10° SE 02:25:38 42° ENE 02:30:42 10° N
Cosmos 1844 Rocket 3.9 02:24:04 10° SE 02:27:46 18° E 02:31:28 10° ENE
SEDSat Delta rocket 4.4 02:24:27 10° W 02:29:33 39° SSW 02:34:00 10° SE
GOES 2 Rocket 4.5 02:26:43 10° SSW 02:29:54 21° SSE 02:32:56 11° ESE
Cosmos 923 Rocket 4.0 02:24:57 10° NNW 02:30:12 89° SW 02:35:23 10° SSE
NOSS 2-2 (D) 2.9 02:26:49 10° SSW 02:30:23 72° ESE 02:33:55 10° NE
YAOGAN 1 2.6 02:26:17 10° SSE 02:30:33 63° ENE 02:34:50 10° N
USA 116 3.5 02:26:59 10° NNE 02:30:34 74° ESE 02:34:35 10° S
GP-B 3.7 02:31:08 10° N 02:35:32 63° W 02:39:54 10° SSW
ATLAS 5 CENTAUR R/B 3.4 02:33:29 10° NNW 02:37:06 42° ENE 02:48:23 10° SE
Okean 2 3.4 02:34:19 10° N 02:38:28 63° E 02:42:33 10° SSE
Cosmos 1943 3.5 02:37:22 10° N 02:42:47 46° ENE 02:48:13 10° SE
Cosmos 1975 3.6 02:40:54 10° SSW 02:44:54 58° W 02:48:56 10° N
Cosmos 1464 Rocket 4.3 02:39:35 10° SSE 02:45:17 42° E 02:51:01 10° NNE
CZ-4 R/B 2.0 02:42:55 10° S 02:47:05 64° W 02:51:17 10° NNW
CSL-04 Debris 4.1 02:43:14 10° SSE 02:48:35 70° ENE 02:53:57 10° N
Cosmos 1782 Rocket 3.9 02:46:30 10° SSW 02:50:52 68° W 02:55:16 10° N
Cosmos 2151 Rocket 4.4 02:49:54 10° SSE 02:53:41 28° E 02:57:29 10° NNE
CZ-2C R/B 0.8 02:51:00 10° W 02:54:36 77° N 02:56:26 25° ENE
Meteor 1-21 4.1 02:51:03 10° N 02:56:39 75° E 03:02:13 10° SSE
CSL-04 Rocket 3.6 02:52:28 10° SSE 02:57:50 81° ENE 03:03:18 10° N
Cosmos 1025 Rocket 4.0 02:56:34 10° NNE 03:00:13 25° ENE 03:00:45 25° E
Cosmos 1603 3.6 02:56:58 10° NNW 03:02:39 84° ENE 03:08:15 10° SSE
Milstar 3 Cent rocket 3.2 02:57:33 10° SW 03:03:51 30° SSE 03:06:06 22° SE
Cosmos 372 Rocket 3.9 03:01:24 10° SSW 03:06:38 85° ESE 03:11:54 10° NNE
Cosmos 1842 3.9 03:03:08 10° NNW 03:06:56 56° W 03:10:43 10° S
Cosmos 2150 Rocket 4.1 03:06:33 10° S 03:11:44 56° ESE 03:17:02 10° NNE
Cosmos 1891 Rocket 4.4 03:06:41 10° S 03:12:52 81° E 03:18:58 10° N
DMSP B5D2-2 4.3 03:09:58 10° NNE 03:15:03 46° E 03:20:05 10° S
SJ-6B 4.0 03:19:56 26° NE 03:19:56 26° NE 03:22:10 10° N
Cosmos 1707 2.6 03:17:02 10° N 03:20:51 66° E 03:21:45 47° SE
Cosmos 1975 Rocket 3.6 03:17:06 10° NNW 03:21:21 59° W 03:25:34 10° S
Cosmos 2084 Rocket 3.5 03:17:04 10° NNW 03:21:33 86° NE 03:23:22 36° SSE
Cosmos 1125 Rocket 3.8 03:16:43 10° S 03:21:43 44° ESE 03:26:44 10° NNE
ISS -1.2 03:20:54 10° W 03:23:30 20° NNW 03:26:06 10° NNE
MOS 1 Rocket 4.1 03:19:41 10° N 03:23:56 48° WNW 03:28:02 10° SSW
Delta 128 4.5 03:22:01 10° WSW 03:26:23 35° S 03:27:21 32° SSE
USA 102 4.2 03:37:52 66° SW 03:38:10 68° WSW 03:44:25 10° NNW
H-2A R/B 3.0 03:35:09 10° S 03:39:49 44° W 03:44:36 10° NNW
USA 234 3.3 03:34:12 10° NE 03:40:45 81° NW 03:47:18 10° SW
Cosmos 2034 Rocket 4.0 03:35:57 10° S 03:42:19 88° W 03:48:42 10° N
SL-08 RB Rocket 3.8 03:43:25 39° S 03:45:04 75° WSW 03:49:39 10° NNW
ARGOS 3.7 03:40:05 10° S 03:45:19 57° W 03:50:36 10° NNW
Nadezhda 4 Rocket 3.8 03:39:57 10° N 03:46:03 68° E 03:47:45 47° SSE
In-Cosmos 22 4.0 03:42:38 10° N 03:47:57 90° ENE 03:49:36 46° S
Okean 2 Rocket 4.5 03:46:02 10° SSW 03:50:15 39° W 03:54:28 10° N
CZ-2C R/B 3.2 03:50:07 10° N 03:55:35 62° WNW 04:01:06 10° SSW
USA 186 4.1 03:57:54 21° NW 03:57:54 21° NW 03:59:15 10° NNW
MOS 1 4.2 03:56:46 56° SSE 03:58:05 89° WSW 04:03:49 10° NNW
Cosmos 1844 3.7 03:54:34 10° SSW 04:00:17 77° WNW 04:05:59 10° NNE
ATLAS 2A CENTAUR R/B 4.5 02:55:12 10° W 04:04:50 68° SSW 04:10:53 42° SE
DELTA 2 R/B (1) 3.6 04:03:11 10° WNW 04:08:23 70° WSW 04:08:23 70° WSW
BREEZE-M DEB (TANK) 4.4 03:52:49 10° WNW 04:11:04 72° NNE 04:12:07 63° ENE
Cosmos 1844 Rocket 3.5 04:05:51 10° SW 04:11:10 47° WNW 04:16:33 10° N
Ariane Rocket 3.7 04:11:03 45° SW 04:11:58 51° W 04:16:55 10° NNW
Cosmos 1634 Rocket 4.5 04:17:30 46° NNE 04:17:30 46° NNE 04:21:46 10° N
ATLAS 2AS CENTAUR R/B 2.9 04:08:14 10° SSW 04:15:59 70° ESE 04:23:54 10° NE
Cosmos 2285 Rocket 4.3 04:15:16 10° SSW 04:21:30 65° WNW 04:27:47 10° N
CENTAUR R/B 3.5 04:26:51 10° NNW 04:34:28 53° NE 04:34:28 53° NE
USA 238 DEB 4.0 04:36:33 10° NNW 04:42:53 69° NNW 04:42:53 69° NNW
USA 238 4.0 04:36:39 10° NNW 04:42:58 68° NNW 04:42:58 68° NNW
Cosmos 1697 Rocket 4.3 11:01:20 25° N 11:01:20 25° N 11:03:49 10° N
CZ-2C R/B 4.5 10:55:22 10° NE 10:59:34 25° E 11:02:27 16° SE
Cosmos 1980 Rocket 2.9 11:04:19 48° NNE 11:04:19 48° NNE 11:08:21 10° NNE
Cosmos 2322 Rocket 4.3 11:04:28 10° SSE 11:08:38 22° E 11:12:51 10° NE
SL-16 R/B 3.7 11:13:21 20° SSE 11:16:22 33° ESE 11:21:21 10° NE
Cosmos 2263 Rocket 4.5 11:12:56 10° N 11:17:18 23° ENE 11:21:42 10° ESE
Meteor 1-14 Rocket 4.3 11:19:02 10° N 11:24:37 70° E 11:30:07 10° SSE
Lacrosse 5 3.8 11:27:59 19° NNW 11:27:59 19° NNW 11:30:34 10° N
Cosmos 1238 Rocket 3.9 11:23:40 10° N 11:30:15 82° E 11:36:06 10° S
Cosmos 921 Rocket 3.6 11:32:00 49° NNE 11:32:00 49° NNE 11:35:05 10° NNE
NOSS 3-3 (A) 3.6 11:32:28 71° W 11:32:48 74° WNW 11:38:59 10° NNE
NOSS 3-3 (C) 3.6 11:32:38 72° W 11:32:56 74° WNW 11:39:04 10° NNE
Meteor 2-6 Rocket 4.3 11:31:13 40° S 11:33:17 76° E 11:39:02 10° NNE
Cosmos 44 4.3 11:37:02 30° NNW 11:37:02 30° NNW 11:39:50 10° NNE
Cosmos 2228 Rocket 3.5 11:38:52 51° N 11:38:52 51° N 11:42:13 10° N
X-37B 3.6 11:42:47 11° N 11:42:47 11° N 11:43:30 10° NNE
Meteor 1-4 Rocket 3.3 11:43:45 49° E 11:43:45 49° E 11:46:56 10° NNE
